This is the latest recevied weather packets stored in our database for station/object KI2K. If no packets are shown the sender has not sent any weather packets the latest 10 day(s).
| Time | Temp. | Humidity | Pressure | Rain* | Wind** | Luminosity | Snow |
|---|---|---|---|---|---|---|---|
| 1778178753 | 16.11° C | 46% | 1014.4 hPa | 0 mm | - | 714 W/m² | - |
| 1778178450 | 16.11° C | 42% | 1014.6 hPa | 0 mm | - | 739 W/m² | - |
| 1778178145 | 15.56° C | 46% | 1014.6 hPa | 0 mm | - | 751 W/m² | - |
| 1778177842 | 15° C | 44% | 1014.4 hPa | 0 mm | - | 711 W/m² | - |
| 1778177538 | 15° C | 46% | 1014.4 hPa | 0 mm | - | 672 W/m² | - |
| 1778177235 | 15.56° C | 44% | 1014.4 hPa | 0 mm | - | 675 W/m² | - |
| 1778176932 | 16.11° C | 44% | 1014.4 hPa | 0 mm | - | 683 W/m² | - |
| 1778176627 | 15.56° C | 45% | 1014.6 hPa | 0 mm | - | 714 W/m² | - |
| 1778176324 | 15.56° C | 51% | 1014.7 hPa | 0 mm | - | 741 W/m² | - |
| 1778176022 | 15.56° C | 44% | 1014.9 hPa | 0 mm | - | 749 W/m² | - |
| 1778175719 | 15° C | 49% | 1015 hPa | 0 mm | - | 731 W/m² | - |
| 1778175411 | 15° C | 46% | 1015 hPa | 0 mm | - | 716 W/m² | - |
| 1778175107 | 14.44° C | 48% | 1014.9 hPa | 0 mm | - | 718 W/m² | - |
| 1778174804 | 15° C | 46% | 1015.1 hPa | 0 mm | - | 731 W/m² | - |
| 1778174496 | 15° C | 46% | 1015.2 hPa | 0 mm | - | 733 W/m² | - |
| 1778174195 | 15° C | 46% | 1015.3 hPa | 0 mm | - | 674 W/m² | - |
| 1778173893 | 15° C | 47% | 1015.3 hPa | 0 mm | - | 600 W/m² | - |
| 1778173590 | 14.44° C | 44% | 1015.5 hPa | 0 mm | - | 598 W/m² | - |
| 1778173287 | 15° C | 49% | 1015.5 hPa | 0 mm | - | 695 W/m² | - |
| 1778172982 | 15° C | 51% | 1015.7 hPa | 0 mm | - | 745 W/m² | - |
| 1778172679 | 15° C | 48% | 1015.8 hPa | 0 mm | - | 750 W/m² | - |
| 1778172375 | 13.89° C | 48% | 1015.7 hPa | 0 mm | - | 742 W/m² | - |
| 1778172072 | 15° C | 49% | 1015.8 hPa | 0 mm | - | 763 W/m² | - |
| 1778171769 | 15.56° C | 53% | 1015.5 hPa | 0 mm | - | 764 W/m² | - |
| 1778171467 | 15° C | 49% | 1015.9 hPa | 0 mm | - | 775 W/m² | - |
* Rain latest hour (hover to see other rain measurements)
** Current wind speed in m/s (hover to see current wind gust speed)